SCP
0 0 0 0 0 0 0 0 0 0 0 0 0 0 0 0 0 0 0 0 0 0 0 0 0 0 0 0 0 0 0 0 0 0 0 0 0 0 0 0 0 0 0
0 0 0 0 0 0 0 0 0 0 0 0 0 0 0 0 0 0 0 0 0 0 0 0 0 0 0 0 0 0 0 0 0 0 0 0 0 0 0 0 0 0 0
0 0 0 0 0 0 0 0 0 0 0 0 0 0 0 0 0 0 0 0 0 0 0 0 0 0 0 0 0 0 0 0 0 0 0 0 0 0 0 0 0 0 0
0 0 0 0 0 0 0 0 0 0 0 0 0 0 0 0 0 0 0 0 0 0 0 0 0 0 0 0 0 0 0 0 0 0 0 0 0 0 0 0 0 0 0
0 0 0 0 0 0 0 0 0 0 0 0 0 0 0 0 0 0 0 0 0 0 0 0 0 0 0 0 0 0 0 0 0 0 0 0 0 0 0 0 0 0 0
0 0 0 0 0 0 0 0 0 0 0 0 0 0 0 0 0 0 0 0 0 0 0 0 0 0 0 0 0 0 0 0 0 0 0 0 0 0 0 0 0 0 0
0 0 0 0 0 0 0 0 0 0 0 0 0 0 0 0 0 0 0 0 0 0 0 0 0 0 0 0 0 0 0 0 0 0 0 0 0 0 0 0 0 0 0
0 0 0 0 0 0 0 0 0 0 0 0 0 0 0 0 0 0 0 0 0 0 0 0 0 0 0 0 0 0 0 0 0 0 0 0 0 0 0 0 0 0 0
0 0 0 0 0 0 0 0 0 0 0 0 0 0 0 0 0 0 0 0 0 0 0 0 0 0 0 0 0 0 0 0 0 0 0 0 0 0 0 0 0 0 0
0 0 0 0 0 0 0 0 0 0 0 0 0 0 0 0 0 0 0 0 0 0 0 0 0 0 0 0 0 0 0 0 0 0 0 0 0 0 0 0 0 0 0
0 0 0 0 0 0 0 0 0 0 0 0 0 0 0 0 0 0 0 0 0 0 0 0 0 0 0 0 0 0 0 0 0 0 0 0 0 0 0 0 0 0 0
0 0 0 0 0 0 0 0 0 0 0 0 0 0 0 0 0 0 0 0 0 0 0 0 0 0 0 0 0 0 0 0 0 0 0 0 0 0 0 0 0 0 0
0 0 0 0 0 0 0 0 0 0 0 0 0 0 0 0 0 0 0 0 0 0 0 0 0 0 0 0 0 0 0 0 0 0 0 0 0 0 0 0 0 0 0
0 0 0 0 0 0 0 0 0 0 0 0 0 0 0 0 0 0 0 0 0 0 0 0 0 0 0 0 0 0 0 0 0 0 0 0 0 0 0 0 0 0 0
0 0 0 0 0 0 0 0 0 0 0 0 0 0 0 0 0 0 0 0 0 0 0 0 0 0 0 0 0 0 0 0 0 0 0 0 0 0 0 0 0 0 0
0 0 0 0 0 0 0 0 0 0 0 0 0 0 0 0 0 0 0 0 0 0 0 0 0 0 0 0 0 0 0 0 0 0 0 0 0 0 0 0 0 0 0
0 0 0 0 0 0 0 0 0 0 0 0 0 0 0 0 0 0 0 0 0 0 0 0 0 0 0 0 0 0 0 0 0 0 0 0 0 0 0 0 0 0 0
0 0 0 0 0 0 0 0 0 0 0 0 0 0 0 0 0 0 0 0 0 0 0 0 0 0 0 0 0 0 0 0 0 0 0 0 0 0 0 0 0 0 0
0 0 0 0 0 0 0 0 0 0 0 0 0 0 0 0 0 0 0 0 0 0 0 0 0 0 0 0 0 0 0 0 0 0 0 0 0 0 0 0 0 0 0
0 0 0 0 0 0 0 0 0 0 0 0 0 0 0 0 0 0 0 0 0 0 0 0 0 0 0 0 0 0 0 0 0 0 0 0 0 0 0 0 0 0 0
0 -0 0 0 0 0 0 0 0 0 0 0 0 0 0 0 0 0 0 0 0 0 0 0 0 0 0 0 0 0 0 0 0 0 0 0 0 0 0 0 0 0 0
-0 -0 -0 0 0 0 0 0 0 0 0 0 0 0 0 0 0 0 0 0 0 0 0 0 0 0 0 0 0 0 0 0 0 0 0 0 0 0 0 0 0 0 0
0 0 0 0 0 0 0 0 0 0 0 0 0 0 0 0 0 0 0 0 0 0 0 0 0 0 0 0 0 0 0 0 0 0 0 0 0 0 0 0 0 0 0
0 0 0 0 0 0 0 0 0 0 0 0 0 0 0 0 0 0 0 0 0 0 0 0 0 0 0 0 0 0 0 0 0 0 0 0 0 0 0 0 0 0 0
0 0 0 0 0 0 0 0 0 0 0 0 0 0 0 0 0 0 0 0 0 0 0 0 0 0 0 0 0 0 0 0 0 0 0 0 0 0 0 0 0 0 0
0 0 0 0 0 0 0 0 0 0 0 0 0 0 0 0 0 0 0 0 0 0 0 0 0 0 0 0 0 0 0 0 0 0 0 0 0 0 0 0 0 0 0
Wind_Speed
0 1 1 1 3 3 2 2 3 2 2 2 2 2 2 2 1 1 1 1 1 2 2 2 2 2 2 2 1 1 2 2 2 2 3 3 4 4 3 4 4 4 4
1 1 1 1 2 2 2 2 2 2 2 2 2 1 1 1 1 1 1 0 1 1 2 2 2 2 2 2 2 2 1 1 1 2 3 3 3 3 3 3 3 4 3
2 2 1 2 2 2 3 2 3 3 3 3 3 3 2 1 1 1 1 1 1 2 2 2 2 2 2 2 2 2 3 2 2 2 3 3 3 3 3 3 3 3 3
2 2 1 2 2 1 1 1 2 3 4 3 3 3 2 2 1 1 1 1 1 1 2 2 2 2 1 2 2 2 3 3 3 2 3 4 3 3 3 3 3 3 4
2 2 2 1 1 0 1 1 2 3 3 3 4 3 2 1 1 1 1 1 0 1 2 2 2 2 2 2 2 2 3 3 3 3 3 3 3 4 4 5 4 3 3
2 2 2 2 2 1 1 1 2 3 3 4 4 4 4 3 2 2 1 1 0 1 2 2 2 2 2 2 3 3 3 3 4 4 4 4 4 4 4 5 6 5 3
2 2 2 2 2 1 1 1 2 3 3 3 4 4 4 4 3 3 2 2 1 1 2 2 2 2 2 3 3 3 4 4 5 4 4 4 4 4 4 5 5 6 4
2 2 2 1 1 1 1 1 2 2 2 3 3 3 3 3 2 3 3 2 2 2 2 3 2 3 3 3 4 3 4 4 5 5 5 4 4 4 4 4 4 5 5
1 1 1 1 1 1 1 1 1 1 1 2 2 2 3 3 3 3 3 3 3 3 4 3 3 3 3 4 4 3 4 4 4 5 5 5 4 4 4 4 4 5 5
2 2 1 1 0 0 0 1 1 1 1 1 2 2 3 3 3 3 3 3 3 3 3 4 3 3 3 4 4 4 4 5 4 4 5 5 4 4 4 4 4 5 6
2 2 2 1 0 0 0 0 1 1 1 1 1 2 2 2 3 3 4 4 3 3 3 4 4 4 4 4 4 5 5 6 6 5 6 6 6 5 4 4 5 5 5
2 2 2 1 1 1 1 1 1 1 1 1 1 2 2 2 3 3 4 4 4 4 4 4 4 5 5 5 5 6 6 6 7 7 7 7 5 6 5 5 5 5 5
2 2 2 2 2 1 1 1 1 1 1 1 1 2 2 2 3 3 3 3 4 4 4 4 5 5 5 6 6 6 6 7 7 7 7 7 7 7 6 6 6 5 5
3 3 2 2 2 2 2 2 2 2 2 2 2 2 3 3 3 3 3 4 4 4 4 5 5 5 5 6 6 6 7 7 7 7 7 8 8 8 8 7 7 6 6
4 4 4 3 3 2 2 2 2 2 2 2 3 3 3 3 3 3 3 3 3 4 4 4 5 5 5 5 6 7 7 7 8 7 8 8 8 8 8 6 7 6 6
6 5 5 4 4 3 3 3 3 3 3 3 4 3 3 3 3 3 3 4 4 4 4 4 5 5 5 6 8 8 7 7 8 8 8 8 8 9 11 11 11 9 8
7 6 6 5 4 4 3 3 3 3 3 4 4 4 4 4 4 4 4 4 4 4 5 5 5 6 6 7 9 9 8 8 8 8 7 6 6 8 8 9 11 11 12
6 6 5 4 4 3 3 3 3 3 4 4 4 4 4 4 5 5 5 5 4 5 5 6 6 6 7 8 9 9 8 8 8 8 8 8 8 7 7 8 8 8 9
5 5 4 4 4 4 4 3 3 4 4 5 5 5 5 5 5 5 6 5 5 5 6 6 6 7 7 8 9 9 6 7 8 8 8 9 9 9 9 8 8 8 7
4 4 3 4 4 4 4 4 5 5 6 6 6 5 5 6 6 6 6 5 5 6 6 6 7 7 8 8 9 9 6 7 7 7 7 10 11 10 10 9 8 9 8
4 4 4 4 4 4 4 6 6 6 6 6 6 6 6 6 7 6 6 6 5 6 6 7 7 8 8 9 10 10 7 7 7 6 6 6 10 12 12 10 9 9 7
5 5 5 5 5 5 5 7 7 7 6 6 7 7 7 6 5 6 6 6 6 6 7 7 7 6 7 8 9 10 11 9 8 7 6 6 9 10 11 10 9 10 8
6 5 5 6 6 5 6 8 8 6 6 7 7 7 7 7 6 6 7 6 6 6 6 6 6 6 6 6 10 11 12 12 9 7 8 9 10 10 9 10 11 8 6
6 5 6 6 6 6 6 8 8 7 7 8 8 7 7 7 7 6 6 6 6 6 6 7 7 7 6 6 5 6 7 8 8 7 8 10 11 9 8 7 7 6 5
6 6 6 7 8 8 8 7 7 7 8 8 8 7 7 7 7 7 7 8 8 8 8 7 7 7 8 8 9 8 6 6 6 6 5 5 5 6 5 5 5 4 4
7 7 7 8 9 9 9 8 7 7 8 8 8 6 6 6 6 7 7 9 11 12 13 13 12 10 12 13 13 13 13 12 12 8 6 6 6 6 6 5 5 5 5
Wind_Direction
284 54 98 126 128 129 142 139 136 130 143 134 136 147 139 128 138 151 161 178 192 199 187 195 199 197 204 211 224 254 253 262 280 267 267 261 256 252 249 250 248 241 244
188 127 116 120 138 147 150 156 157 152 148 134 131 130 124 129 124 133 120 145 220 205 199 200 197 198 204 209 217 229 256 264 255 263 271 266 246 239 249 249 248 251 247
215 182 169 166 170 179 179 175 180 177 162 146 141 139 145 168 175 177 149 52 290 200 198 198 196 204 216 219 231 230 236 244 245 254 263 264 263 290 243 252 254 258 258
217 201 194 181 186 200 190 197 177 172 162 162 165 163 171 178 193 175 134 193 238 212 189 199 201 200 214 226 230 230 241 241 240 241 256 274 289 277 279 244 248 266 265
197 190 194 182 152 137 158 176 153 159 163 172 173 179 189 188 171 172 187 211 212 238 211 206 207 209 217 230 236 236 240 241 246 246 248 252 259 256 264 273 275 269 265
178 174 157 138 113 100 117 158 156 163 167 175 183 188 193 195 190 200 206 224 235 243 218 215 215 222 227 229 233 231 238 241 244 249 248 249 250 248 253 264 275 279 277
164 153 145 145 132 128 141 168 166 171 175 181 191 193 199 202 207 218 221 228 238 247 242 230 227 228 229 234 235 234 239 241 242 244 250 253 258 263 263 268 276 282 283
171 167 166 168 157 151 174 186 187 192 190 195 198 203 203 207 213 220 225 233 245 257 257 246 242 241 239 238 236 241 243 244 245 249 253 254 255 254 253 257 269 277 272
201 200 186 191 190 192 204 210 198 209 214 217 212 214 214 214 220 224 228 234 235 241 242 237 238 239 238 239 240 242 245 246 248 250 250 253 256 255 254 251 250 260 274
228 238 244 254 256 265 219 197 202 208 220 220 217 220 223 223 227 232 233 234 238 235 236 238 237 240 243 243 242 245 249 247 248 248 250 252 252 250 247 246 248 250 260
235 237 249 265 263 286 188 213 215 206 227 236 228 220 226 227 230 233 240 243 243 235 232 240 244 247 250 248 245 246 251 250 251 248 249 252 253 253 249 246 243 244 249
250 249 250 254 256 259 256 243 244 242 257 255 246 239 237 233 242 246 247 246 246 245 243 241 243 247 249 249 247 247 247 250 252 252 250 250 249 248 251 248 244 243 245
236 237 238 239 248 259 262 258 259 265 272 262 252 249 245 239 246 256 257 251 251 253 249 243 242 245 247 247 247 248 251 252 254 254 251 251 249 248 245 246 246 244 245
246 248 246 243 248 254 269 281 285 288 286 273 261 258 260 256 256 258 257 253 251 253 253 251 251 251 250 249 250 251 252 254 254 253 252 252 249 250 249 245 245 244 244
246 245 250 250 248 254 267 277 281 284 277 267 263 264 271 269 262 260 262 260 258 259 261 260 259 256 253 249 251 252 252 254 256 254 252 251 251 254 253 249 247 242 242
245 247 253 255 250 254 266 269 270 272 268 266 265 267 271 273 268 266 269 265 261 262 262 258 259 258 255 256 256 259 257 255 254 256 256 254 247 246 247 247 248 245 243
254 249 249 249 249 255 261 267 273 271 266 267 270 272 270 271 272 269 266 264 266 266 264 264 261 261 262 259 259 259 259 256 254 255 257 255 249 245 247 243 241 241 241
257 256 252 252 256 260 261 266 272 271 268 269 271 275 271 269 270 268 266 269 269 265 264 264 263 263 263 262 263 264 259 257 255 253 253 255 255 248 247 249 247 246 242
265 263 259 256 261 264 265 263 266 268 268 269 273 274 270 266 266 266 266 269 267 266 264 264 263 263 265 261 262 264 262 257 256 255 253 253 255 250 245 248 249 251 249
272 265 261 256 259 265 262 255 260 262 264 268 271 272 267 261 262 265 268 268 264 265 267 264 262 262 265 262 260 261 258 258 259 256 252 247 250 253 245 246 246 249 250
279 272 265 259 261 265 257 254 260 264 269 273 271 269 265 262 262 265 265 265 264 264 263 265 264 262 261 259 256 256 255 256 259 257 253 248 246 250 248 247 247 247 249
282 276 269 265 265 261 255 257 262 269 272 270 269 268 268 267 263 262 262 261 259 260 263 264 266 263 259 258 256 253 254 258 258 258 256 253 251 254 251 247 246 244 239
280 277 272 274 272 265 258 261 269 273 270 268 269 271 271 267 261 257 258 256 253 253 258 260 264 268 265 262 258 257 256 254 255 258 256 259 257 254 251 244 239 232 228
283 280 274 270 272 271 265 264 271 270 266 267 269 269 267 267 263 257 251 251 250 251 254 257 261 267 266 262 259 257 255 252 253 255 255 252 251 246 245 239 231 227 225
284 280 273 274 277 281 277 274 272 267 264 266 268 267 264 264 263 260 255 252 251 249 253 258 259 261 264 260 260 263 259 254 254 257 253 249 244 240 233 228 224 220 217
282 278 276 276 278 281 280 278 274 266 263 265 265 264 262 262 262 265 266 249 248 255 254 256 259 263 263 269 266 264 263 261 259 253 245 243 240 238 233 226 223 220 220